星链-30367 (STARLINK-30367 )

导读 | 星芒AI

STARLINK-30367 是 SpaceX Starlink 卫星互联网项目中的一颗低轨卫星。该卫星属于 Starlink 群体部署的一部分,旨在为全球用户提供高速互联网服务。它运行在约 550 公里的近地轨道上,配备先进通信设备,支持宽带数据传输。作为 Starlink 计划的组成部分,STARLINK-30367 有助于提升网络覆盖范围,特别是在偏远和网络基础设施薄弱的地区。该卫星的发射和运行体现了 SpaceX 在推动全球互联网普及方面的技术实力与战略部署。

基本信息
目录编号:
57791
目录名称:
STARLINK-30367
国际标识:
2023-134W
轨道中心:
EARTH
卫星名称:
星链-30367
卫星全名:
星链-30367 (STARLINK-30367 )
卫星状态:
在轨 (已飞行837 天)
发射日期:
2023-09-04 UTC
国别 :
美国 (US)
星等 :
--
轨道信息
数据来源 国际轨道数据
星历时间: 2025-12-18T20:22:11+0800
14小时前
查看轨道信息
半长轴: 6937.258km
偏心率: 0.0000983
轨道倾角: 43.005°
近地点辐角 268.250°
升交点赤经 278.316°
平近点角 91.823°
近地点: 558.441km
远地点: 559.805km
周期: 95.839分钟
每日圈数: 15.025226
详细信息
固有亮度:
5
最大亮度:
0.3
卫星平台:
Starlink v2.0 mini
覆盖范围:
全球
运营商:
太空探索技术公司
运营商所在国:
美国
制造商(研发单位):
太空探索技术公司
制造商所在国:
美国
使用方式:
暂无
卫星简介
星链(Starlink)计划是由太空探索技术公司(SpaceX)提出的一个巨型低轨卫星互联网星座项目,计划在2019年至2024年间在太空搭建由约1.2万颗卫星组成的“星链”网络,其中1584颗将部署在地球上空550千米处的近地轨道,并从2020年开始工作。该卫星仍在工作。
2D轨道图
3D轨道图
轨道高度分析图
轨道倾角分析图
轨道综合分析图
查看轨道综合分析图